Simultaneous Nadir Overpasses (SNOs) Predictions

Prediction of SNOs between LANDSAT-8 and METOP-A Satellite Orbit:

Table of predicted SNOs for the next 14.0 days since TLE Epoch: 6/15/2019
Index Date (LANDSAT-8) Time (LANDSAT-8) Lat,Lon (LANDSAT-8) SZA (LANDSAT-8 ) Date (METOP-A) Time (METOP-A) Lat,Lon (METOP-A) SZA (METOP-A ) Distance(km) Time Diff (sec)
1 06/16/2019 19:46:25 -81.46, 109.65 119.15 06/16/2019 19:46:07 -81.47, 109.74 119.15 1.77 18
2 06/16/2019 20:35:51 81.47, -82.60 60.86 06/16/2019 20:36:47 81.47, -82.52 60.90 1.40 56
3 06/19/2019 15:20:41 -81.47, 176.19 119.22 06/19/2019 15:20:31 -81.47, 176.11 119.23 1.40 10
4 06/19/2019 16:10:07 81.47, -16.09 60.79 06/19/2019 16:11:11 81.47, -16.17 60.82 1.33 64
5 06/22/2019 10:54:56 -81.47,-117.29 119.24 06/22/2019 10:54:53 -81.47,-117.13 119.22 2.72 3
6 06/22/2019 11:44:22 81.47, 50.41 60.77 06/22/2019 11:45:33 81.47, 50.58 60.83 2.83 71
7 06/25/2019 05:39:45 81.47, 141.56 60.80 06/25/2019 05:38:37 81.47, 141.59 60.77 0.63 68
8 06/25/2019 06:29:12 -81.47, -50.80 119.21 06/25/2019 06:29:17 -81.47, -50.78 119.20 0.41 5
9 06/28/2019 01:14:01 81.47,-152.00 60.88 06/28/2019 01:13:01 81.47,-152.09 60.84 1.54 60




NCC Satellite Simultaneous Nadir Overpasses (SNOs) Prediction Service
